Home   Weather   Famagusta   Past weeks

Flag for Cyprus Past Weather in Famagusta, Northern Cyprus, Cyprus — Yesterday and Last 2 Weeks

Now
68 °F

Passing clouds.


Feels Like: 68 °F
Forecast: 55 / 65 °F
Wind: 12 mph from West

Location: Larnaca Airport

Current Time: Dec 3, 2016 at 12:56:55 pm

Latest Report: Dec 3, 2016 at 12:30 pm


Visibility: N/A

Pressure: 30.18 "Hg

Humidity: 46%

Dew Point: 46 °F

Location of FamagustaLocation

Past Weather in Famagusta — Graph

°F

Famagusta Temperature Yesterday

Maximum temperature yesterday: 63 °F (at 11:00 am)
Minimum temperature yesterday: 48 °F (at 10:30 pm)
Average temperature yesterday: 56 °F

High & Low Weather Summary for the Past Weeks

 TemperatureHumidityPressure
High75 °F (Nov 20, 2:30 pm)100% (Dec 1, 2:00 am)30.21 "Hg (Dec 1, 2:00 am)
Low46 °F (Nov 27, 4:30 am)23% (Nov 23, 2:00 pm)29.59 "Hg (Dec 1, 5:30 pm)
Average61 °F53%30.03 "Hg
* Reported Nov 18 11:00 am — Dec 3 11:30 am, Famagusta, Weather by CustomWeather, © 2016

Note: Actual official high and low records may vary slightly from our data, if they occured in-between our weather recording intervals... More about our weather records

Advertising

Famagusta Weather History for the Previous 24 Hours

Scroll right to see more
 ConditionsComfort  
Time TempWeatherWind HumidityBarometerVisibility
11:30 am
Sat, Dec 3
64 °FPassing clouds.10 mph56%30.21 "HgN/A
11:00 am64 °FPassing clouds.7 mph52%30.21 "HgN/A
10:30 am63 °FPassing clouds.3 mph52%30.21 "HgN/A
10:00 am59 °FPassing clouds.2 mph55%30.21 "HgN/A
9:30 am55 °FPassing clouds.No wind63%30.18 "HgN/A
9:00 am52 °FPassing clouds.2 mph67%30.18 "HgN/A
8:30 am50 °FPassing clouds.3 mph71%30.18 "HgN/A
8:00 am46 °FPassing clouds.6 mph76%30.15 "HgN/A
7:30 am46 °FPassing clouds.5 mph76%30.15 "HgN/A
7:00 am48 °FPassing clouds.3 mph71%30.15 "HgN/A
6:30 am48 °FPassing clouds.3 mph71%30.12 "HgN/A
6:00 am48 °FClear.3 mph71%30.12 "Hg10 mi
5:00 am54 °FClear.8 mph58%30.09 "Hg10 mi
4:30 am52 °FClear.5 mph62%30.09 "Hg10 mi
4:00 am52 °FClear.1 mph62%30.09 "Hg10 mi
3:30 am54 °FClear.2 mph58%30.09 "Hg10 mi
3:00 am52 °FPassing clouds.6 mph62%30.09 "HgN/A
2:30 am50 °FPassing clouds.6 mph67%30.09 "HgN/A
2:00 am54 °FPassing clouds.3 mph58%30.07 "HgN/A
1:30 am54 °FPassing clouds.3 mph58%30.07 "HgN/A
1:00 am48 °FPassing clouds.3 mph71%30.07 "HgN/A
12:30 am48 °FClear.3 mph76%30.07 "Hg10 mi
12:00 am50 °FPassing clouds.5 mph67%30.04 "HgN/A
11:30 pm
Fri, Dec 2
52 °FClear.6 mph67%30.04 "Hg10 mi
11:00 pm50 °FPassing clouds.3 mph76%30.04 "HgN/A
10:30 pm48 °FClear.6 mph87%30.04 "Hg10 mi
10:00 pm52 °FPassing clouds.6 mph72%30.04 "HgN/A
9:30 pm52 °FClear.6 mph72%30.04 "Hg10 mi
9:00 pm50 °FPassing clouds.3 mph82%30.01 "HgN/A
8:30 pm50 °FPassing clouds.3 mph82%30.01 "HgN/A
8:00 pm52 °FPassing clouds.No wind77%29.98 "HgN/A
7:30 pm54 °FPassing clouds.2 mph67%29.98 "HgN/A
7:00 pm54 °FPassing clouds.5 mph72%29.95 "HgN/A
6:30 pm55 °FPassing clouds.5 mph67%29.95 "HgN/A
6:00 pm57 °FPassing clouds.5 mph63%29.92 "HgN/A
5:30 pm57 °FPassing clouds.8 mph63%29.92 "HgN/A
5:00 pm59 °FPassing clouds.12 mph55%29.89 "HgN/A
4:30 pm59 °FPassing clouds.12 mph55%29.89 "HgN/A
4:00 pm61 °FPassing clouds.10 mph52%29.86 "HgN/A
3:30 pm61 °FScattered clouds.13 mph52%29.83 "HgN/A
3:00 pm61 °FScattered clouds.13 mph48%29.83 "HgN/A
2:30 pm63 °FScattered showers. Scattered clouds.12 mph49%29.83 "HgN/A
2:00 pm61 °FScattered showers. Scattered clouds.15 mph52%29.83 "HgN/A
1:30 pm61 °FScattered clouds.14 mph52%29.83 "HgN/A
1:00 pm61 °FScattered clouds.15 mph52%29.83 "HgN/A
12:30 pm63 °FScattered clouds.12 mph49%29.83 "HgN/A
12:00 pm61 °FScattered clouds.8 mph52%29.83 "HgN/A
Weather by CustomWeather, © 2016

See weather overviewHow to use our weather pages